| time (UTC) | temp F | wind direction | speed MPH | gust MPH | rain 1hr in | rain 24hr in | rain mn in | humidity % | barometer mb |
| 20260505041028 | 44 | 0.0 | 0.0 | 0.00 | 0.00 | 0.00 | 88 | 1010.3 | |
| 20260505040026 | 44 | 0.0 | 0.0 | 0.00 | 0.00 | 0.00 | 88 | 1010.6 | |
| 20260505035021 | 43 | 0.0 | 0.0 | 0.00 | 0.00 | 0.00 | 88 | 1010.6 | |
| 20260505034028 | 43 | 0.0 | 0.0 | 0.00 | 0.00 | 0.00 | 88 | 1010.6 | |
| 20260505033044 | 43 | 0.0 | 0.0 | 0.00 | 0.00 | 0.00 | 87 | 1010.3 | |
| 20260505032020 | 43 | 0.0 | 0.0 | 0.00 | 0.00 | 0.00 | 87 | 1010.4 | |
| 20260505031021 | 43 | 0.0 | 0.0 | 0.00 | 0.00 | 0.00 | 86 | 1010.7 | |
| 20260505030045 | 44 | 0.0 | 0.0 | 0.00 | 0.00 | 0.00 | 86 | 1011.1 | |
| 20260505025031 | 44 | 0.0 | 0.0 | 0.00 | 0.00 | 0.00 | 85 | 1011.1 | |
| 20260505024023 | 44 | 0.0 | 0.0 | 0.00 | 0.00 | 0.00 | 85 | 1011.1 | |
| 20260505023050 | 44 | 0.0 | 0.0 | 0.00 | 0.00 | 0.00 | 85 | 1011.1 | |
| 20260505022052 | 45 | 0.0 | 0.0 | 0.00 | 0.00 | 0.00 | 84 | 1011.1 | |
| 20260505021022 | 45 | 0.0 | 0.0 | 0.00 | 0.00 | 0.00 | 82 | 1010.8 | |
| 20260505020032 | 46 | 0.0 | 0.0 | 0.00 | 0.00 | 0.00 | 82 | 1011.2 | |
| 20260505015050 | 46 | 0.0 | 0.0 | 0.00 | 0.00 | 0.00 | 81 | 1011.2 | |
| 20260505014036 | 47 | 0.0 | 0.0 | 0.00 | 0.00 | 0.00 | 80 | 1011.1 | |
| 20260505013020 | 47 | 0.0 | 0.0 | 0.00 | 0.00 | 0.00 | 80 | 1011.2 | |
| 20260505012049 | 47 | 0.0 | 0.0 | 0.00 | 0.00 | 0.00 | 80 | 1011.2 | |
| 20260505011047 | 47 | 0.0 | 0.0 | 0.00 | 0.00 | 0.00 | 80 | 1011.2 | |
| 20260505010050 | 47 | 0.0 | 0.0 | 0.00 | 0.00 | 0.00 | 79 | 1011.5 | |
| 20260505005020 | 48 | 0.0 | 0.0 | 0.00 | 0.00 | 0.00 | 79 | 1011.5 | |
| 20260505004037 | 48 | 0.0 | 0.0 | 0.00 | 0.00 | 0.00 | 80 | 1011.8 | |
| 20260505003027 | 48 | 0.0 | 0.0 | 0.00 | 0.00 | 0.00 | 80 | 1011.8 | |
| 20260505002026 | 48 | 0.0 | 0.0 | 0.00 | 0.00 | 0.00 | 79 | 1011.8 | |
| 20260505001033 | 48 | 0.0 | 0.0 | 0.00 | 0.00 | 0.00 | 79 | 1012.1 | |
| 20260505000031 | 48 | 0.0 | 0.0 | 0.00 | 0.00 | 0.00 | 79 | 1012.1 | |
| 20260504235040 | 49 | 0.0 | 0.0 | 0.00 | 0.00 | 0.00 | 80 | 1012.1 | |
| 20260504234059 | 49 | 0.0 | 0.0 | 0.00 | 0.00 | 0.00 | 79 | 1012.2 | |
| 20260504233044 | 49 | 338 | 0.0 | 1.0 | 0.00 | 0.00 | 0.00 | 79 | 1012.2 |
| 20260504232020 | 50 | 0.0 | 0.0 | 0.00 | 0.00 | 0.00 | 78 | 1012.2 | |
| 20260504231024 | 50 | 0.0 | 0.0 | 0.00 | 0.00 | 0.00 | 78 | 1012.5 | |
| 20260504230028 | 50 | 0.0 | 0.0 | 0.00 | 0.00 | 0.00 | 76 | 1012.8 | |
| 20260504225029 | 50 | 0.0 | 0.0 | 0.00 | 0.00 | 0.00 | 76 | 1012.8 | |
| 20260504224019 | 50 | 0.0 | 0.0 | 0.00 | 0.00 | 0.00 | 76 | 1012.5 | |
| 20260504223022 | 51 | 0.0 | 0.0 | 0.00 | 0.00 | 0.00 | 75 | 1012.9 | |
| 20260504222052 | 51 | 0.0 | 0.0 | 0.00 | 0.00 | 0.00 | 76 | 1012.9 | |
| 20260504221046 | 51 | 0.0 | 0.0 | 0.00 | 0.00 | 0.00 | 75 | 1012.8 | |
| 20260504220544 | 51 | 0.0 | 0.0 | 0.00 | 0.00 | 0.00 | 74 | 1012.8 | |
| 20260504215030 | 52 | 0.0 | 0.0 | 0.00 | 0.00 | 0.00 | 74 | 1012.8 | |
| 20260504214033 | 52 | 0.0 | 0.0 | 0.00 | 0.00 | 0.00 | 74 | 1013.1 | |
| 20260504213044 | 52 | 0.0 | 0.0 | 0.00 | 0.00 | 0.00 | 73 | 1013.1 | |
| 20260504212045 | 53 | 0.0 | 0.0 | 0.00 | 0.00 | 0.00 | 72 | 1013.1 | |
| 20260504211022 | 53 | 0.0 | 0.0 | 0.00 | 0.00 | 0.00 | 70 | 1013.2 | |
| 20260504210024 | 53 | 0.0 | 0.0 | 0.00 | 0.00 | 0.00 | 69 | 1013.2 | |
| 20260504205024 | 53 | 0.0 | 0.0 | 0.00 | 0.00 | 0.00 | 67 | 1013.2 | |
| 20260504204024 | 55 | 0.0 | 0.0 | 0.00 | 0.00 | 0.00 | 66 | 1013.3 | |
| 20260504203023 | 56 | 0.0 | 0.0 | 0.00 | 0.00 | 0.00 | 62 | 1013.3 | |
| 20260504202029 | 56 | 0.0 | 0.0 | 0.00 | 0.00 | 0.00 | 61 | 1013.3 | |
| 20260504201023 | 57 | 0.0 | 0.0 | 0.00 | 0.00 | 0.00 | 60 | 1013.3 | |
| 20260504200025 | 58 | 0.0 | 0.0 | 0.00 | 0.00 | 0.00 | 58 | 1013.3 | |
| 20260504195044 | 59 | 0.0 | 0.0 | 0.00 | 0.00 | 0.00 | 56 | 1013.3 | |
| 20260504194041 | 60 | 0.0 | 0.0 | 0.00 | 0.00 | 0.00 | 55 | 1013.2 | |
| 20260504193027 | 60 | 0.0 | 0.0 | 0.00 | 0.00 | 0.00 | 54 | 1013.3 | |
| 20260504192042 | 60 | 0.0 | 0.0 | 0.00 | 0.00 | 0.00 | 53 | 1013.3 | |
| 20260504191023 | 62 | 0.0 | 0.0 | 0.00 | 0.00 | 0.00 | 52 | 1013.4 | |
| 20260504190026 | 63 | 0.0 | 0.0 | 0.00 | 0.00 | 0.00 | 49 | 1013.4 | |
| 20260504185025 | 63 | 0.0 | 0.0 | 0.00 | 0.00 | 0.00 | 49 | 1013.4 | |
| 20260504184023 | 63 | 0.0 | 0.0 | 0.00 | 0.00 | 0.00 | 49 | 1013.5 | |
| 20260504183023 | 64 | 0.0 | 0.0 | 0.00 | 0.00 | 0.00 | 50 | 1013.1 | |
| 20260504182023 | 64 | 0.0 | 0.0 | 0.00 | 0.00 | 0.00 | 49 | 1013.1 | |
| 20260504181027 | 65 | 0.0 | 0.0 | 0.00 | 0.00 | 0.00 | 47 | 1013.0 | |
| 20260504180051 | 67 | 0.0 | 0.0 | 0.00 | 0.00 | 0.00 | 46 | 1013.0 | |
| 20260504175023 | 68 | 0.0 | 0.0 | 0.00 | 0.00 | 0.00 | 44 | 1013.0 | |
| 20260504174115 | 69 | 0.0 | 0.0 | 0.00 | 0.00 | 0.00 | 43 | 1013.1 | |
| 20260504173031 | 70 | 0.0 | 0.0 | 0.00 | 0.00 | 0.00 | 42 | 1013.1 | |
| 20260504172043 | 71 | 168 | 0.0 | 0.0 | 0.00 | 0.00 | 0.00 | 40 | 1013.1 |
| 20260504171029 | 72 | 126 | 0.0 | 1.0 | 0.00 | 0.00 | 0.00 | 38 | 1013.0 |
| 20260504151021 | 79 | 169 | 2.0 | 7.0 | 0.00 | 0.00 | 0.00 | 35 | 1013.6 |
| 20260504141022 | 82 | 221 | 2.0 | 5.0 | 0.00 | 0.00 | 0.00 | 34 | 1013.6 |
| 20260504100547 | 77 | 213 | 1.0 | 4.0 | 0.00 | 0.00 | 0.00 | 39 | 1015.9 |
| 20260504081121 | 75 | 168 | 2.0 | 5.0 | 0.00 | 0.00 | 0.00 | 40 | 1016.1 |
| 20260504060107 | 69 | 135 | 0.0 | 1.0 | 0.00 | 0.00 | 0.00 | 45 | 1016.2 |
| 20260504050143 | 62 | 176 | 0.0 | 3.0 | 0.00 | 0.00 | 0.00 | 52 | 1016.1 |
| 20260504045047 | 59 | 164 | 1.0 | 3.0 | 0.00 | 0.00 | 0.00 | 54 | 1016.0 |